[[{"header":{"parameterUnit":"m.s-1","parameterCategory":1,"la1":30.2991,"la2":30.254,"lo1":-89.0895,"lo2":-89.0444,"dy":0.0017,"dx":0.0017,"nx":28,"ny":28,"refTime":"2024-08-27T03:00:00:Z","depth":0,"parameterNumber":2,"parameterNumberName":"U-component_of_WINDS"},"data":[0,0,0,0,0,0,0,0,0,0,0,0,0,0,0,0,0,0,0,0,0,0,0,0,0,0,0,0,0,0,0,0,0,0,0,0,0,0,0,0,0,0,0,0,0,0,0,0,0,0,0,0,0,0,0,0,0,0,-3.4564,-3.4564,0,-3.4565,-3.4565,-3.4565,-3.4506,-3.4505,-3.4503,-3.4501,-3.4502,-3.4503,-3.4504,0,0,0,0,0,0,0,0,0,0,0,0,0,-3.451,-3.4511,-3.4564,-3.4564,-3.4564,-3.4565,-3.4565,-3.4565,-3.4506,-3.4504,-3.4503,-3.4501,-3.4501,-3.4503,-3.4505,0,0,0,0,0,0,0,0,0,0,0,0,0,-3.4525,-3.4512,-3.4564,-3.4535,-3.4533,-3.4565,-3.4565,-3.4565,-3.4507,-3.4504,-3.4502,-3.45,-3.45,-3.4503,-3.4505,-3.4565,0,0,-3.4511,-3.4512,0,0,0,0,0,0,0,0,-3.4524,-3.4527,-3.4539,-3.4537,-3.4534,-3.4533,-3.4546,-3.4565,-3.4507,-3.4517,-3.4501,-3.4499,-3.4514,-3.4515,-3.452,-3.4565,-3.4565,-3.4512,-3.4513,-3.4514,-3.4514,0,0,0,0,0,0,0,-3.4523,-3.4526,-3.4565,-3.454,-3.4537,-3.4521,-3.4521,-3.4549,-3.4528,-3.4516,-3.4511,-3.4512,-3.4512,-3.4518,-3.452,-3.4565,-3.4512,-3.4513,-3.4515,-3.4516,-3.4656,-3.4658,0,0,0,0,0,0,-3.4526,-3.4526,-3.4565,-3.4565,-3.4523,-3.4524,-3.4524,-3.4536,-3.4528,-3.4524,-3.4514,-3.4509,-3.4516,-3.4517,-3.4519,-3.4586,-3.4514,-3.4516,-3.4517,-3.4653,-3.4656,-3.4659,0,0,0,0,0,0,-3.4525,-3.453,-3.4564,-3.4544,-3.4547,-3.4528,-3.4542,-3.4537,-3.4543,-3.4527,-3.4523,-3.4524,-3.4514,-3.4516,-3.4553,-3.4585,-3.4517,-3.4519,-3.465,-3.4654,-3.4658,-3.4722,0,0,0,0,0,0,-3.4524,-3.453,-3.4553,-3.4545,-3.4549,-3.4599,-3.4544,-3.4539,-3.4547,-3.4541,-3.4535,-3.4532,-3.4512,-3.455,-3.4555,-3.4587,-3.4521,-3.4647,-3.4652,-3.4656,-3.4717,-3.4728,-3.4737,0,0,0,0,0,-3.4522,-3.4572,-3.4555,-3.456,-3.4577,-3.4601,-3.4603,-3.4579,-3.455,-3.4572,-3.4562,-3.4532,-3.4582,-3.4555,-3.456,-3.4593,-3.4645,-3.4651,-3.4656,-3.4713,-3.4726,-3.4736,0,0,0,0,0,0,-3.4585,-3.4571,-3.4551,-3.46,-3.4602,-3.4591,-3.4619,-3.4594,-3.4605,-3.4598,-3.4569,-3.4568,-3.4609,-3.4605,-3.4575,-3.4649,-3.4608,-3.4615,-3.4649,-3.4661,-3.4671,-3.467,-3.4522,0,0,0,0,0,-3.4605,-3.4626,-3.4612,-3.4656,-3.4658,-3.4639,-3.4648,-3.463,-3.4631,-3.4631,-3.4623,-3.4625,-3.464,-3.4651,-3.4665,-3.4717,-3.4713,-3.4742,-3.4752,-3.476,-3.4765,-3.4789,-3.4801,-3.4677,-3.4677,-3.4677,0,0,-3.4645,-3.464,-3.4655,-3.4669,-3.4668,-3.4689,-3.464,-3.4665,-3.468,-3.4635,-3.4668,-3.4663,-3.4663,-3.4707,-3.4726,-3.4705,-3.4799,-3.4767,-3.4774,-3.4774,-3.4796,-3.4808,-3.4818,-3.468,-3.468,-3.4679,0,0,-3.4729,-3.4729,-3.4764,-3.4764,-3.4764,-3.475,-3.4759,-3.4751,-3.4745,-3.4779,-3.4744,-3.4762,-3.479,-3.479,-3.4794,-3.4877,-3.4849,-3.4883,-3.4932,-3.4956,-3.4966,-3.4974,-3.5,-3.501,-3.4889,-3.4889,-3.4889,0,-3.4779,-3.481,-3.4785,-3.4812,-3.4817,-3.4778,-3.4812,-3.4814,-3.4818,-3.4823,-3.48,-3.4832,-3.483,-3.4872,-3.4892,-3.4898,-3.4904,-3.4882,-3.4967,-3.4975,-3.4982,-3.5007,-3.5017,-3.4893,-3.4892,-3.4892,-3.4891,0,-3.487,-3.4892,-3.492,-3.4924,-3.4934,-3.4964,-3.4943,-3.4955,-3.4936,-3.4925,-3.4958,-3.4953,-3.4964,-3.4973,-3.4956,-3.5012,-3.4998,-3.4972,-3.4929,-3.4998,-3.502,-3.503,-3.4898,-3.4897,-3.4895,-3.4895,0,0,-3.4992,-3.4981,-3.4991,-3.4991,-3.4988,-3.5004,-3.5032,-3.5042,-3.5052,-3.5057,-3.5077,-3.5102,-3.5076,-3.5081,-3.5063,-3.5084,-3.5146,-3.5054,-3.5054,-3.5068,-3.5204,-3.5221,-3.5233,-3.5129,-3.513,-3.5132,-3.5202,0,-3.507,-3.5117,-3.5094,-3.5143,-3.5161,-3.5124,-3.5148,-3.5148,-3.5138,-3.5151,-3.5141,-3.5157,-3.5124,-3.5126,-3.5146,-3.5134,-3.5172,-3.5129,-3.5145,-3.5146,-3.5143,-3.5245,-3.5264,-3.5331,-3.5211,-3.5213,-3.5214,0,-3.5167,-3.5174,-3.5225,-3.5215,-3.5222,-3.5244,-3.5249,-3.5264,-3.5262,-3.5253,-3.5258,-3.5234,-3.526,-3.5221,-3.5254,-3.5225,-3.5231,-3.5226,-3.5228,-3.5226,-3.5182,-3.5242,-3.5352,-3.536,-3.5228,-3.5227,-3.5226,0,-3.5246,-3.5269,-3.5301,-3.5303,-3.5293,-3.5309,-3.5306,-3.5302,-3.5309,-3.5315,-3.5318,-3.5328,-3.5332,-3.5339,-3.5318,-3.5292,-3.5353,-3.5313,-3.5344,-3.5344,-3.5356,-3.5355,-3.5464,-3.5366,-3.5366,-3.5366,-3.5365,0,-3.5334,-3.5365,-3.5336,-3.5355,-3.5389,-3.5363,-3.5397,-3.5389,-3.5386,-3.5402,-3.5372,-3.5388,-3.5361,-3.5374,-3.5358,-3.5386,-3.539,-3.5381,-3.5376,-3.5382,-3.5382,-3.5383,-3.5376,-3.5368,-3.5368,-3.5367,-3.5367,0,-3.5427,-3.5409,-3.544,-3.5429,-3.5426,-3.5451,-3.544,-3.5457,-3.5445,-3.5466,-3.547,-3.5451,-3.5464,-3.5445,-3.5457,-3.5446,-3.5484,-3.5473,-3.5484,-3.5479,-3.551,-3.5506,-3.5621,-3.5634,-3.5531,-3.5532,-3.5533,0,-3.5482,-3.5505,-3.5495,-3.5503,-3.5502,-3.5516,-3.5522,-3.5498,-3.5506,-3.5505,-3.5521,-3.5532,-3.5539,-3.5562,-3.5549,-3.5558,-3.5545,-3.5585,-3.5546,-3.555,-3.5541,-3.5538,-3.5539,-3.5592,-3.5593,-3.5594,-3.5595,0,-3.5581,-3.557,-3.558,-3.5587,-3.5595,-3.5599,-3.5601,-3.561,-3.5584,-3.5594,-3.5607,-3.5612,-3.5624,-3.5634,-3.5639,-3.5635,-3.561,-3.5608,-3.5614,-3.5619,-3.5622,-3.5617,-3.5501,-3.5604,-3.5603,-3.5602,-3.5602,-3.5602,-3.5654,-3.5671,-3.5666,-3.5677,-3.5676,-3.5678,-3.5692,-3.5682,-3.5692,-3.5698,-3.5684,-3.57,-3.5696,-3.57,-3.5698,-3.571,-3.5692,-3.5704,-3.5706,-3.5708,-3.5711,-3.5624,-3.5711,-3.5711,-3.5711,-3.5711,-3.571,0,-3.5747,-3.5742,-3.5753,-3.5756,-3.5764,-3.5741,-3.5741,-3.575,-3.5764,-3.5763,-3.577,-3.5784,-3.5793,-3.5781,-3.5788,-3.5799,-3.5788,-3.5802,-3.5799,-3.5797,-3.5728,-3.572,-3.581,-3.581,-3.581,-3.581,-3.581,-3.581,-3.5797,-3.5824,-3.5812,-3.5838,-3.5832,-3.5847,-3.5849,-3.585,-3.5848,-3.5864,-3.5872,-3.5864,-3.5857,-3.5863,-3.5871,-3.5867,-3.5869,-3.5886,-3.5878,-3.5813,-3.5803,-3.5793,-3.5785,-3.5888,-3.5888,-3.5946,-3.5946,-3.5947]},{"header":{"parameterUnit":"m.s-1","parameterCategory":1,"la1":30.2991,"la2":30.254,"lo1":-89.0895,"lo2":-89.0444,"dy":0.0017,"dx":0.0017,"nx":28,"ny":28,"refTime":"2024-08-27T03:00:00:Z","depth":0,"parameterNumber":3,"parameterNumberName":"V-component_of_WINDS"},"data":[0,0,0,0,0,0,0,0,0,0,0,0,0,0,0,0,0,0,0,0,0,0,0,0,0,0,0,0,0,0,0,0,0,0,0,0,0,0,0,0,0,0,0,0,0,0,0,0,0,0,0,0,0,0,0,0,0,0,1.9536,1.9538,0,1.9709,1.9711,1.9712,1.9726,1.9724,1.9722,1.972,1.9894,1.99,1.9906,0,0,0,0,0,0,0,0,0,0,0,0,0,1.9215,1.922,1.9535,1.9538,1.954,1.9708,1.9711,1.9713,1.9726,1.9724,1.9722,1.972,1.9891,1.9899,1.9907,0,0,0,0,0,0,0,0,0,0,0,0,0,1.9367,1.9222,1.9535,1.9567,1.9571,1.9708,1.9711,1.9714,1.9727,1.9724,1.9721,1.9718,1.9889,1.9898,1.9908,2.0023,0,0,1.9937,1.9941,0,0,0,0,0,0,0,0,1.9359,1.9379,1.956,1.9565,1.957,1.9693,1.9661,1.9817,1.9727,1.9668,1.972,1.9717,1.9829,1.9843,1.9882,2.0031,2.0038,1.9938,1.9943,1.9947,1.995,0,0,0,0,0,0,0,1.9348,1.9372,1.9604,1.9563,1.9569,1.9572,1.959,1.9691,1.9762,1.9673,1.9674,1.9695,1.9831,1.9872,1.9886,2.0041,1.9937,1.9946,1.9952,1.9955,2.0296,2.0299,0,0,0,0,0,0,1.9332,1.9363,1.9598,1.9609,1.9456,1.958,1.9601,1.9656,1.9761,1.9774,1.9697,1.9695,1.9857,1.9875,1.9892,2.0035,1.9947,1.9956,1.9962,2.0292,2.0296,2.03,0,0,0,0,0,0,1.9325,1.9353,1.9591,1.9487,1.9517,1.9588,1.9651,1.9661,1.9703,1.9779,1.9791,1.9726,1.9856,1.9878,1.9991,2.0041,1.9961,1.9969,2.0288,2.0294,2.0298,2.0321,0,0,0,0,0,0,1.9316,1.935,1.9395,1.9487,1.9523,1.9688,1.9654,1.9667,1.9719,1.9718,1.981,1.9822,1.9855,1.9977,2.0,2.0053,1.9977,2.0284,2.0291,2.0297,2.0316,2.0326,2.0335,0,0,0,0,0,1.9304,1.9393,1.9397,1.9426,1.958,1.9691,1.9711,1.9749,1.9723,1.9769,1.9819,1.9819,2.0032,1.9988,2.0015,2.0071,2.0281,2.0289,2.0296,2.0312,2.0324,2.0335,0,0,0,0,0,0,1.9303,1.9406,1.9411,1.9533,1.9604,1.9693,1.9752,1.976,1.9838,1.9833,1.9875,1.9896,2.0007,2.005,2.0,2.0189,2.0154,2.0167,2.0157,2.0169,2.0178,2.0165,1.9985,0,0,0,0,0,1.9317,1.9399,1.9485,1.9584,1.9619,1.9679,1.9729,1.9752,1.9826,1.9855,1.9913,1.9984,2.0067,2.012,2.0201,2.0323,2.0343,2.0375,2.0384,2.0391,2.0402,2.0472,2.0487,2.0324,2.0324,2.0324,0,0,1.9347,1.9413,1.9462,1.9585,1.9643,1.9727,1.9704,1.9793,1.9856,1.9868,1.9979,2.0024,2.0106,2.0224,2.0279,2.0263,2.0452,2.0401,2.0406,2.0413,2.0481,2.0496,2.051,2.0329,2.0329,2.0328,0,0,1.9444,1.9502,1.9592,1.9651,1.9738,1.9778,1.98,1.9889,1.992,2.0032,2.0044,2.0119,2.026,2.0319,2.0367,2.0489,2.0493,2.0514,2.0562,2.063,2.0642,2.0654,2.0698,2.0714,2.0524,2.0524,2.0524,0,1.9469,1.9597,1.9637,1.9727,1.9781,1.9799,1.989,1.9944,2.0053,2.009,2.0071,2.0251,2.0307,2.0441,2.0471,2.0509,2.0535,2.0503,2.0638,2.065,2.0661,2.0704,2.072,2.0526,2.0526,2.0526,2.0526,0,1.9624,1.9713,1.9775,1.9882,1.9943,2.0033,2.0087,2.0144,2.0162,2.0204,2.0318,2.0387,2.0482,2.0516,2.0533,2.0652,2.064,2.0629,2.0594,2.0678,2.0719,2.0735,2.0529,2.0529,2.0528,2.0527,0,0,1.9723,1.9854,1.9876,1.9925,2.0025,2.0093,2.0185,2.028,2.0329,2.0403,2.0481,2.0602,2.0594,2.0648,2.0673,2.0732,2.0826,2.0714,2.0717,2.0733,2.0962,2.097,2.0988,2.0829,2.0833,2.0835,2.0955,0,1.9832,1.9996,2.0036,2.0177,2.0259,2.0278,2.0358,2.0427,2.047,2.0545,2.0591,2.0677,2.0658,2.0692,2.0751,2.0802,2.0872,2.0794,2.0902,2.0905,2.0881,2.1009,2.1017,2.1127,2.0971,2.0974,2.0976,0,1.998,2.0061,2.021,2.0301,2.0337,2.0408,2.0499,2.0572,2.0651,2.0678,2.074,2.076,2.0856,2.0817,2.095,2.0895,2.0942,2.0974,2.0979,2.099,2.0946,2.1024,2.1163,2.118,2.1002,2.1,2.0998,0,2.0038,2.0184,2.0293,2.0335,2.0443,2.0493,2.054,2.0616,2.0672,2.0751,2.0788,2.0877,2.0926,2.0994,2.1038,2.1005,2.1167,2.1132,2.1192,2.1191,2.1225,2.1222,2.1373,2.1255,2.1254,2.1254,2.1254,0,2.0156,2.0246,2.0321,2.0388,2.049,2.0536,2.0636,2.0683,2.0752,2.0828,2.0849,2.092,2.0972,2.1051,2.1085,2.119,2.1212,2.1236,2.1244,2.1235,2.1232,2.1266,2.1259,2.1259,2.1258,2.1257,2.1256,0,2.0238,2.0292,2.0412,2.0505,2.0531,2.0602,2.0682,2.0748,2.0791,2.0887,2.0912,2.098,2.1074,2.1124,2.124,2.1263,2.1382,2.1385,2.1356,2.1359,2.1417,2.1411,2.1595,2.1622,2.1485,2.1486,2.1487,0,2.0309,2.038,2.0482,2.0535,2.0584,2.0669,2.0727,2.0774,2.0833,2.093,2.0984,2.1079,2.1158,2.1306,2.1365,2.1455,2.1461,2.152,2.1474,2.1463,2.1463,2.1458,2.1466,2.1527,2.1528,2.1529,2.153,0,2.043,2.0454,2.0537,2.063,2.0698,2.0773,2.0847,2.0889,2.0949,2.1014,2.1111,2.1172,2.1292,2.1386,2.1481,2.1529,2.154,2.1544,2.1563,2.1554,2.1534,2.1547,2.1378,2.154,2.1539,2.1538,2.1538,2.1537,2.051,2.0574,2.0657,2.0749,2.081,2.0879,2.0946,2.0999,2.1081,2.1184,2.1207,2.1309,2.1388,2.1517,2.1568,2.1648,2.1637,2.1664,2.1671,2.1677,2.168,2.1522,2.1666,2.1665,2.1665,2.1665,2.1665,0,2.0633,2.0688,2.0772,2.0876,2.0949,2.0955,2.1037,2.1097,2.1188,2.1261,2.1339,2.1451,2.1543,2.1611,2.1705,2.1756,2.1764,2.178,2.1776,2.1787,2.1684,2.1659,2.1772,2.1772,2.1772,2.1772,2.1772,2.1772,2.0705,2.0815,2.0849,2.099,2.1044,2.1146,2.1193,2.1257,2.1316,2.1441,2.1519,2.1563,2.1634,2.1734,2.1819,2.1836,2.187,2.1886,2.1903,2.1806,2.1794,2.1783,2.176,2.1892,2.1893,2.2,2.2001,2.2002]}]]